GW5682 Weather Reports


Display with metric or nautical units.
time (UTC)temp
F
wind
direction
speed
MPH
gust
MPH
rain 1hr
in
rain 24hr
in
rain mn
in
humidity
%
barometer
mb
20260901114655 74 0.0 0.0 0.00 0.00 0.00 79 1018.9
20260901113611 74 0.0 0.0 0.00 0.00 0.00 78 1018.7
20260901112654 74 0.0 0.0 0.00 0.00 0.00 78 1018.7
20260901111610 75 0.0 0.0 0.00 0.00 0.00 77 1018.4
20260901110634 75 0.0 0.0 0.00 0.00 0.00 76 1018.5
20260901105611 76 0.0 0.0 0.00 0.00 0.00 75 1018.1
20260901104634 76 0.0 0.0 0.00 0.00 0.00 75 1018.2
20260901103610 76 0.0 0.0 0.00 0.00 0.00 74 1018.3
20260901102634 76 0.0 0.0 0.00 0.00 0.00 74 1018.5
20260901101611 76 0.0 0.0 0.00 0.00 0.00 73 1018.5
20260901100635 76 0.0 0.0 0.00 0.00 0.00 72 1018.6
20260901095611 77 0.0 0.0 0.00 0.00 0.00 72 1018.3
20260901094635 77 0.0 0.0 0.00 0.00 0.00 71 1018.4
20260901093610 78 0.0 0.0 0.00 0.00 0.00 71 1018.5
20260901092635 78 0.0 0.0 0.00 0.00 0.00 70 1018.3
20260901091610 78 0.0 0.0 0.00 0.00 0.00 70 1018.4
20260901090635 78 0.0 0.0 0.00 0.00 0.00 70 1018.6
20260901085631 78 90 1.0 2.0 0.00 0.00 0.00 69 1018.3
20260901084634 79 0.0 0.0 0.00 0.00 0.00 68 1018.2
20260901083610 79 0.0 1.0 0.00 0.00 0.00 68 1018.3
20260901082635 79 0.0 0.0 0.00 0.00 0.00 68 1018.3
20260901081631 78 90 1.0 3.0 0.00 0.00 0.00 68 1018.3
20260901080635 78 90 1.0 1.0 0.00 0.00 0.00 70 1018.1
20260901075651 79 0.0 1.0 0.00 0.00 0.00 68 1018.2
20260901074635 80 0.0 0.0 0.00 0.00 0.00 64 1018.0
20260901073631 80 0.0 0.0 0.00 0.00 0.00 63 1017.9
20260901072634 79 0.0 0.0 0.00 0.00 0.00 63 1018.0
20260901071610 80 0.0 0.0 0.00 0.00 0.00 63 1018.1
20260901070655 80 0.0 0.0 0.00 0.00 0.00 63 1018.0
20260901065630 80 0.0 0.0 0.00 0.00 0.00 63 1018.1
20260901064634 80 0.0 0.0 0.00 0.00 0.00 63 1018.0
20260901063610 80 0.0 1.0 0.00 0.00 0.00 63 1018.1
20260901062634 80 0.0 0.0 0.00 0.00 0.00 63 1018.1
20260901061610 80 0.0 0.0 0.00 0.00 0.00 63 1018.0
20260901060635 80 0.0 0.0 0.00 0.00 0.00 64 1017.9
20260901055610 80 0.0 1.0 0.00 0.00 0.00 64 1017.6
20260901054635 80 0.0 1.0 0.00 0.00 0.00 63 1017.6
20260901053610 81 0.0 0.0 0.00 0.00 0.00 63 1017.7
20260901052634 81 0.0 1.0 0.00 0.00 0.00 63 1017.7
20260901051631 81 90 1.0 3.0 0.00 0.00 0.00 63 1017.6
20260901050634 81 45 1.0 1.0 0.00 0.00 0.00 63 1017.5
20260901045611 81 45 1.0 1.0 0.00 0.00 0.00 63 1017.4
20260901044635 81 90 2.0 3.0 0.00 0.00 0.00 63 1017.4
20260901043611 81 135 2.0 3.0 0.00 0.00 0.00 63 1017.3
20260901042634 81 45 1.0 3.0 0.00 0.00 0.00 62 1017.0
20260901041611 81 90 1.0 1.0 0.00 0.00 0.00 62 1017.2
20260901040635 81 158 1.0 3.0 0.00 0.00 0.00 63 1017.2
20260901035610 81 0.0 1.0 0.00 0.00 0.00 63 1017.1
20260901034635 82 0.0 1.0 0.00 0.00 0.00 58 1017.2
20260901033611 83 0.0 1.0 0.00 0.00 0.00 57 1017.0
20260901032635 83 90 1.0 1.0 0.00 0.00 0.00 55 1017.2
20260901031611 83 0.0 1.0 0.00 0.00 0.00 54 1017.1
20260901030635 83 0.0 0.0 0.00 0.00 0.00 54 1017.1
20260901025610 83 90 1.0 1.0 0.00 0.00 0.00 54 1016.8
20260901024634 83 90 1.0 1.0 0.00 0.00 0.00 54 1016.8
20260901023610 83 90 1.0 1.0 0.00 0.00 0.00 54 1016.5
20260901022634 84 0.0 0.0 0.00 0.00 0.00 53 1016.7
20260901021631 84 0.0 0.0 0.00 0.00 0.00 52 1016.4
20260901020635 85 0.0 0.0 0.00 0.00 0.00 50 1016.3
20260901015631 85 0.0 0.0 0.00 0.00 0.00 50 1016.3
20260901014634 86 0.0 0.0 0.00 0.00 0.00 50 1016.1
20260901013610 86 90 1.0 2.0 0.00 0.00 0.00 49 1016.0
20260901012634 87 0.0 0.0 0.00 0.00 0.00 45 1016.1
20260901011610 88 0.0 0.0 0.00 0.00 0.00 42 1016.1
20260901010655 89 0.0 0.0 0.00 0.00 0.00 41 1015.9
20260901005610 90 0.0 0.0 0.00 0.00 0.00 41 1016.0
20260901004635 92 0.0 0.0 0.00 0.00 0.00 37 1016.0
20260901003630 93 90 1.0 2.0 0.00 0.00 0.00 35 1016.0
20260901002634 94 0.0 0.0 0.00 0.00 0.00 34 1015.8
20260901001610 95 135 2.0 3.0 0.00 0.00 0.00 33 1015.7
20260901000635 97 135 1.0 1.0 0.00 0.00 0.00 31 1015.7
20260831235610 97 90 1.0 2.0 0.00 0.00 0.00 31 1015.8
20260831234635 98 158 3.0 3.0 0.00 0.00 0.00 30 1015.8
20260831233610 99 45 3.0 4.0 0.00 0.00 0.00 30 1015.8
20260831232634 99 90 3.0 5.0 0.00 0.00 0.00 30 1015.8
20260831231611 99 0 3.0 4.0 0.00 0.00 0.00 30 1016.0
20260831230655 99 90 3.0 5.0 0.00 0.00 0.00 30 1015.8
20260831225611 99 90 2.0 3.0 0.00 0.00 0.00 30 1016.0
20260831224655 98 135 3.0 4.0 0.00 0.00 0.00 30 1016.0
20260831223611 100 180 5.0 7.0 0.00 0.00 0.00 25 1016.1
20260831222634 101 135 4.0 5.0 0.00 0.00 0.00 23 1016.0
20260831221611 101 90 4.0 6.0 0.00 0.00 0.00 23 1016.3
20260831220635 101 45 2.0 3.0 0.00 0.00 0.00 24 1016.3
20260831215611 101 135 4.0 5.0 0.00 0.00 0.00 23 1016.2
20260831214634 102 90 3.0 5.0 0.00 0.00 0.00 23 1016.5
20260831213611 102 45 2.0 3.0 0.00 0.00 0.00 22 1016.5
20260831212634 103 135 7.0 10.0 0.00 0.00 0.00 22 1016.5
20260831211610 102 0.0 1.0 0.00 0.00 0.00 23 1016.8
20260831210635 101 45 5.0 7.0 0.00 0.00 0.00 23 1016.9
20260831205611 101 90 3.0 4.0 0.00 0.00 0.00 23 1016.9
20260831204634 103 135 1.0 3.0 0.00 0.00 0.00 21 1017.2
20260831203611 102 90 3.0 3.0 0.00 0.00 0.00 21 1017.4
20260831202634 103 135 1.0 3.0 0.00 0.00 0.00 20 1017.3
20260831201610 102 90 3.0 4.0 0.00 0.00 0.00 21 1017.5
20260831200635 102 90 4.0 5.0 0.00 0.00 0.00 23 1017.5
20260831195611 101 45 3.0 5.0 0.00 0.00 0.00 26 1017.7
20260831194634 98 225 5.0 8.0 0.00 0.00 0.00 30 1018.1
20260831193611 98 180 3.0 5.0 0.00 0.00 0.00 31 1018.0
20260831192634 101 180 5.0 7.0 0.00 0.00 0.00 25 1018.1
20260831191611 102 180 1.0 2.0 0.00 0.00 0.00 27 1018.1
20260831190634 102 135 5.0 7.0 0.00 0.00 0.00 26 1018.3
20260831185610 102 180 3.0 5.0 0.00 0.00 0.00 28 1018.2
20260831184634 101 90 3.0 6.0 0.00 0.00 0.00 27 1018.3
20260831183611 101 135 5.0 6.0 0.00 0.00 0.00 27 1018.5
20260831182634 101 225 3.0 3.0 0.00 0.00 0.00 27 1018.5
20260831181610 100 135 1.0 2.0 0.00 0.00 0.00 30 1018.9
20260831180634 100 225 1.0 3.0 0.00 0.00 0.00 32 1018.9
20260831175611 99 135 3.0 3.0 0.00 0.00 0.00 33 1019.2
20260831174503 99 180 2.0 3.0 0.00 0.00 0.00 34 1019.2
20260831173124 99 45 1.0 1.0 0.00 0.00 0.00 33 1019.5
20260831172208 99 90 1.0 2.0 0.00 0.00 0.00 34 1019.5
20260831171124 98 135 1.0 2.0 0.00 0.00 0.00 36 1019.7
20260831170148 98 225 3.0 4.0 0.00 0.00 0.00 35 1019.9
20260831165124 98 135 2.0 3.0 0.00 0.00 0.00 35 1019.6
20260831164148 97 90 3.0 3.0 0.00 0.00 0.00 34 1019.6
20260831163145 97 90 2.0 3.0 0.00 0.00 0.00 34 1019.8
20260831162148 96 270 1.0 2.0 0.00 0.00 0.00 36 1019.8
20260831161125 95 225 2.0 3.0 0.00 0.00 0.00 35 1019.7
20260831160209 96 135 2.0 4.0 0.00 0.00 0.00 35 1019.8
20260831155124 95 180 4.0 6.0 0.00 0.00 0.00 36 1019.7
20260831154148 94 90 1.0 2.0 0.00 0.00 0.00 35 1019.9
20260831153125 93 135 2.0 3.0 0.00 0.00 0.00 38 1019.9
20260831152149 92 135 3.0 4.0 0.00 0.00 0.00 40 1019.6
20260831151124 91 225 2.0 3.0 0.00 0.00 0.00 41 1019.8
20260831150148 90 225 1.0 1.0 0.00 0.00 0.00 49 1019.6
20260831145124 89 180 3.0 4.0 0.00 0.00 0.00 50 1019.7
20260831144148 88 0.0 1.0 0.00 0.00 0.00 52 1019.6
20260831143125 88 0.0 1.0 0.00 0.00 0.00 53 1019.8
20260831142209 87 90 1.0 2.0 0.00 0.00 0.00 57 1019.7
20260831141124 86 270 1.0 3.0 0.00 0.00 0.00 59 1019.7
20260831140148 85 0.0 1.0 0.00 0.00 0.00 62 1019.8
20260831135125 83 45 1.0 2.0 0.00 0.00 0.00 62 1019.5
20260831134149 82 90 1.0 1.0 0.00 0.00 0.00 66 1019.6
20260831133125 81 0.0 1.0 0.00 0.00 0.00 71 1019.3
20260831132148 79 0.0 0.0 0.00 0.00 0.00 73 1019.1
20260831131124 77 0.0 0.0 0.00 0.00 0.00 75 1019.0
20260831130148 76 0.0 0.0 0.00 0.00 0.00 78 1018.7
20260831125124 74 0.0 0.0 0.00 0.00 0.00 78 1018.6
20260831124148 73 0.0 0.0 0.00 0.00 0.00 78 1018.6
20260831123125 73 0.0 0.0 0.00 0.00 0.00 77 1018.5
20260831122149 73 0.0 0.0 0.00 0.00 0.00 77 1018.1
20260831121124 73 0.0 0.0 0.00 0.00 0.00 76 1018.2
20260831120208 73 0.0 0.0 0.00 0.00 0.00 75 1017.8